Location: Rancho Del Sol Observatory
(38.7214°N, 120.6350°W)
Time: 22:36:55
(UTC-08:00)

A-11 Canister half - Pass Details

Date: 02 February 2020
Orbit: 1517 x 1683 km, 47.2° (Epoch: 17 February)

Event Time Altitude Azimuth Distance (km) Brightness Sun altitude
Rises 21:08:10 0° 236° (SW) 4,818 12.0 -43.5°
Reaches altitude 10° 21:11:18 10° 236° (SW) 3,812 11.4 -44.1°
Enters shadow 21:16:44 39° 236° (SW) 2,204 9.8 -45.2°
Maximum altitude 21:20:59 88° 148° (SSE) 1,566 - -45.9°
Drops below altitude 10° 21:30:23 10° 60° (ENE) 3,704 - -47.7°
Sets 21:33:24 0° 61° (ENE) 4,676 - -48.2°
